Location: Berlin
(42.3812°N, 71.6370°W)
Time: 04:51:21
(UTC+00:00)

Helios 1A Rocket - Pass Details

Date: 15 November 2025
Orbit: 439 x 451 km, 98.3° (Epoch: 09 December)

Event Time Altitude Azimuth Distance (km) Brightness Sun altitude
Rises 10:42:29 0° 190° (S) 2,430 6.2 -10.4°
Reaches altitude 10° 10:44:44 10° 204° (SSW) 1,561 5.1 -10.0°
Maximum altitude 10:47:34 26° 262° (W) 923 3.5 -9.5°
Drops below altitude 10° 10:50:25 10° 321° (NW) 1,566 4.6 -9.0°
Enters shadow 10:51:10 - 327° (NNW) 1,842 5.0 -8.9°
